FW9329 Weather Reports


Display with metric or nautical units.
time (UTC)temp
F
wind
direction
speed
MPH
gust
MPH
rain 1hr
in
rain 24hr
in
rain mn
in
humidity
%
barometer
mb
20260504221545 58 0 7.0 18.0 0.00 0.00 0.00 76 1011.4
20260504220046 59 0 9.0 20.0 0.00 0.00 0.00 74 1011.3
20260504214551 59 191 7.0 21.0 0.00 0.00 0.00 73 1011.4
20260504213041 60 186 4.0 20.0 0.00 0.00 0.00 72 1011.4
20260504211548 60 0 4.0 20.0 0.00 0.00 0.00 71 1011.4
20260504210058 60 154 7.0 20.0 0.00 0.00 0.00 71 1011.5
20260504204557 60 176 6.0 22.0 0.00 0.00 0.00 70 1011.5
20260504203056 61 194 9.0 22.0 0.00 0.00 0.00 69 1011.4
20260504201542 61 173 6.0 21.0 0.00 0.00 0.00 70 1011.4
20260504200041 61 221 11.0 22.0 0.00 0.00 0.00 69 1011.7
20260504194547 62 219 9.0 25.0 0.00 0.00 0.00 68 1011.8
20260504193044 63 234 8.0 22.0 0.00 0.00 0.00 65 1011.8
20260504191542 63 209 8.0 20.0 0.00 0.00 0.00 65 1011.8
20260504190042 63 0 6.0 25.0 0.00 0.00 0.00 65 1011.9
20260504184544 63 231 13.0 27.0 0.00 0.00 0.00 65 1012.1
20260504183047 63 216 10.0 24.0 0.00 0.00 0.00 65 1012.3
20260504181545 63 206 7.0 21.0 0.00 0.00 0.00 67 1012.5
20260504180044 62 221 12.0 24.0 0.00 0.00 0.00 67 1012.5
20260504174543 62 213 7.0 20.0 0.00 0.00 0.00 68 1012.8
20260504173049 62 228 13.0 24.0 0.00 0.00 0.00 68 1012.8
20260504171542 62 213 9.0 19.0 0.00 0.00 0.00 70 1012.9
20260504081548 51 228 8.0 17.0 0.00 0.00 0.00 75 1013.7
20260504044542 50 236 3.0 13.0 0.00 0.00 0.00 78 1013.0
20260504043043 50 222 2.0 10.0 0.00 0.00 0.00 77 1013.1
20260504041544 50 224 1.0 11.0 0.00 0.00 0.00 77 1012.8
20260504040049 50 224 3.0 11.0 0.00 0.00 0.00 79 1012.9
20260504034552 49 218 2.0 10.0 0.00 0.00 0.00 80 1012.8
20260504033042 49 240 2.0 8.0 0.00 0.00 0.00 78 1012.8
20260504031543 48 224 3.0 9.0 0.00 0.00 0.00 76 1012.6
20260504030042 47 240 1.0 10.0 0.00 0.00 0.00 72 1012.7
20260504024551 47 0 0.0 3.0 0.00 0.00 0.00 67 1012.6
20260504023045 47 0 0.0 0.0 0.00 0.00 0.00 62 1012.5
20260504021546 48 0 0.0 0.0 0.00 0.00 0.00 59 1012.5
20260504020044 49 0 0.0 0.0 0.00 0.00 0.00 55 1012.4
20260504014548 50 0 0.0 0.0 0.00 0.00 0.00 52 1012.4
20260504013055 50 0 0.0 3.0 0.00 0.00 0.00 51 1012.2
20260504011545 51 0 0.0 3.0 0.00 0.00 0.00 49 1012.0
20260504010045 51 0 0.0 3.0 0.00 0.00 0.00 48 1011.9
20260504004543 52 0 0.0 0.0 0.00 0.00 0.00 45 1011.6
20260504003041 53 0 0.0 0.0 0.00 0.00 0.00 41 1011.5
20260504001543 53 0 0.0 3.0 0.00 0.00 0.00 40 1011.2
20260504000041 54 278 0.0 2.0 0.00 0.00 0.00 39 1011.0
20260503234545 55 0 1.0 7.0 0.00 0.00 0.00 40 1010.8
20260503233045 56 0 0.0 5.0 0.00 0.00 0.00 37 1010.6
20260503231542 56 282 1.0 10.0 0.00 0.00 0.00 36 1010.5
20260503230042 56 0 2.0 12.0 0.00 0.00 0.00 36 1010.5
20260503224540 56 0 1.0 8.0 0.00 0.00 0.00 36 1010.4
20260503223045 57 318 4.0 12.0 0.00 0.00 0.00 35 1010.4